Regional Weather Roundup
Issued by NWS

Home | Current Version | Previous Version | Graphics & Text | Print | Product List | Glossary On
Versions: 1 2 3 4 5 6 7 8 9 10 11 12 13 14 15 16 17 18 19 20 21 22 23 24 25 26 27 28 29 30 31 32 33 34 35 36 37 38 39 40 41 42 43 44 45 46 47 48 49 50
000
ASUS43 KFSD 222002
RWRSD

WEATHER ROUNDUP FOR SOUTH DAKOTA
NATIONAL WEATHER SERVICE SIOUX FALLS SD
300 PM CDT FRI MAY 22 2015

NOTE: "FAIR" INDICATES FEW OR NO CLOUDS BELOW 12,000 FEET WITH NO
SIGNIFICANT WEATHER AND/OR OBSTRUCTIONS TO VISIBILITY.


SDZ001>005-009-010-012>017-222100-
NORTHWEST AND NORTH CENTRAL SOUTH DAKOTA

CITY           SKY/WX    TMP DP  RH WIND       PRES   REMARKS
BUFFALO          N/A     66  36  32 SE23G36   29.99F
MOBRIDGE       MOSUNNY   75  36  24 SE15      30.10F
$$

SDZ012>016-024>037-041>051-057-063-072>074-222100-
SOUTHWEST AND SOUTH CENTRAL SOUTH DAKOTA

CITY           SKY/WX    TMP DP  RH WIND       PRES   REMARKS
RAPID CTY ARPT CLOUDY    59  43  55 S16       30.08S
PIERRE         PTSUNNY   71  34  25 S28G33    30.11F
CUSTER         CLOUDY    48  38  68 SE9       30.10F
ELLSWORTH AFB  CLOUDY    60  44  57 S15G21    30.07F
PHILIP         CLOUDY    66  37  34 SE20      30.10S
PINE RIDGE     CLOUDY    53  41  63 SE20G28   30.11R
WINNER         FAIR      67  37  33 SE15G26   30.15F
$$

SDZ004>011-016>023-039-040-222100-
NORTHEAST SOUTH DAKOTA

CITY           SKY/WX    TMP DP  RH WIND       PRES   REMARKS
ABERDEEN       PTSUNNY   77  38  24 S12       30.14F
WATERTOWN      SUNNY     73  34  23 VRB5      30.17F
BROOKINGS      MOSUNNY   73  34  23 S5        30.17F
$$

SDZ017-020-022-023-036>040-048>070-222100-
SOUTHEAST SOUTH DAKOTA

CITY           SKY/WX    TMP DP  RH WIND       PRES   REMARKS
SIOUX FALLS    CLOUDY    74  40  29 VRB3      30.18S
HURON          PTSUNNY   75  37  25 SE7G18    30.15F
CHAMBERLAIN    CLOUDY    67  41  38 SE18G26   30.15F
MITCHELL       CLOUDY    73  39  29 S15       30.17S
YANKTON        CLOUDY    72  37  28 S12       30.17F
$$

ABBREVIATIONS USED IN REMARKS
   TC - TEMPERATURE IN CELSIUS
  WCI - WIND CHILL INDEX
   HX - HEAT INDEX
  VSB - VISIBILITY



USA.gov is the U.S. government's official web portal to all federal, state and local government web resources and services.